| time (UTC) | temp F | wind direction | speed MPH | gust MPH | rain 1hr in | rain 24hr in | rain mn in | humidity % | barometer mb |
| 20260831191601 | 66 | 0 | 1.0 | 8.0 | 0.00 | 0.12 | 0.12 | 54 | 1017.2 |
| 20260831190100 | 66 | 0 | 0.0 | 9.0 | 0.00 | 0.12 | 0.12 | 54 | 1017.0 |
| 20260831184556 | 67 | 0 | 0.0 | 5.0 | 0.00 | 0.12 | 0.12 | 52 | 1016.7 |
| 20260831183052 | 68 | 0 | 0.0 | 6.0 | 0.00 | 0.12 | 0.12 | 51 | 1016.3 |
| 20260831181608 | 68 | 360 | 0.0 | 9.0 | 0.00 | 0.12 | 0.12 | 50 | 1015.9 |
| 20260831180054 | 69 | 360 | 1.0 | 8.0 | 0.00 | 0.12 | 0.12 | 49 | 1015.7 |
| 20260831174556 | 69 | 205 | 4.0 | 16.0 | 0.00 | 0.12 | 0.12 | 48 | 1015.5 |
| 20260831173055 | 70 | 272 | 6.0 | 9.0 | 0.00 | 0.12 | 0.12 | 47 | 1015.4 |
| 20260831171555 | 70 | 360 | 8.0 | 16.0 | 0.00 | 0.12 | 0.12 | 45 | 1015.2 |
| 20260831170058 | 71 | 276 | 6.0 | 16.0 | 0.00 | 0.12 | 0.12 | 46 | 1015.1 |
| 20260831164556 | 71 | 232 | 4.0 | 13.0 | 0.00 | 0.12 | 0.12 | 44 | 1015.0 |
| 20260831163052 | 72 | 254 | 6.0 | 13.0 | 0.00 | 0.12 | 0.12 | 43 | 1015.1 |
| 20260831161600 | 73 | 300 | 7.0 | 13.0 | 0.00 | 0.12 | 0.12 | 45 | 1015.0 |
| 20260831160055 | 73 | 209 | 2.0 | 11.0 | 0.00 | 0.12 | 0.12 | 43 | 1014.9 |
| 20260831154616 | 74 | 204 | 1.0 | 19.0 | 0.00 | 0.12 | 0.12 | 43 | 1014.7 |
| 20260831153118 | 74 | 80 | 1.0 | 15.0 | 0.00 | 0.12 | 0.12 | 44 | 1014.8 |
| 20260831151603 | 74 | 360 | 5.0 | 15.0 | 0.00 | 0.12 | 0.12 | 43 | 1015.0 |
| 20260831150055 | 71 | 360 | 4.0 | 13.0 | 0.00 | 0.12 | 0.12 | 46 | 1015.0 |
| 20260831144626 | 74 | 360 | 10.0 | 18.0 | 0.00 | 0.12 | 0.12 | 45 | 1015.0 |
| 20260831143050 | 74 | 313 | 2.0 | 0.0 | 0.00 | 0.12 | 0.12 | 44 | 1015.1 |
| 20260831141557 | 74 | 360 | 5.0 | 20.0 | 0.00 | 0.12 | 0.12 | 44 | 1015.0 |
| 20260831140054 | 74 | 241 | 6.0 | 20.0 | 0.00 | 0.12 | 0.12 | 45 | 1015.0 |
| 20260831134555 | 73 | 360 | 9.0 | 9.0 | 0.00 | 0.12 | 0.12 | 45 | 1015.0 |
| 20260831133108 | 72 | 276 | 8.0 | 15.0 | 0.00 | 0.12 | 0.12 | 48 | 1015.3 |
| 20260831131603 | 71 | 252 | 7.0 | 11.0 | 0.00 | 0.12 | 0.12 | 51 | 1015.4 |
| 20260831130105 | 72 | 360 | 2.0 | 12.0 | 0.00 | 0.12 | 0.12 | 49 | 1015.4 |
| 20260831124555 | 73 | 161 | 6.0 | 20.0 | 0.00 | 0.12 | 0.12 | 49 | 1015.3 |
| 20260831123059 | 73 | 360 | 8.0 | 23.0 | 0.00 | 0.12 | 0.12 | 49 | 1015.4 |
| 20260831121554 | 72 | 360 | 6.0 | 18.0 | 0.00 | 0.12 | 0.12 | 51 | 1015.4 |
| 20260831120104 | 72 | 15 | 2.0 | 20.0 | 0.00 | 0.12 | 0.12 | 54 | 1015.4 |
| 20260831114607 | 72 | 293 | 4.0 | 0.0 | 0.00 | 0.12 | 0.12 | 53 | 1015.5 |
| 20260831113102 | 71 | 286 | 12.0 | 20.0 | 0.00 | 0.12 | 0.12 | 55 | 1015.6 |
| 20260831111558 | 72 | 279 | 3.0 | 11.0 | 0.00 | 0.12 | 0.12 | 59 | 1015.7 |
| 20260831110106 | 72 | 360 | 8.0 | 17.0 | 0.00 | 0.12 | 0.12 | 59 | 1015.6 |
| 20260831104551 | 71 | 360 | 3.0 | 16.0 | 0.00 | 0.12 | 0.12 | 62 | 1015.6 |
| 20260831103059 | 69 | 360 | 3.0 | 16.0 | 0.00 | 0.12 | 0.12 | 64 | 1015.8 |
| 20260831101557 | 68 | 360 | 3.0 | 13.0 | 0.00 | 0.12 | 0.12 | 67 | 1015.8 |
| 20260831100116 | 70 | 0 | 1.0 | 9.0 | 0.00 | 0.12 | 0.12 | 65 | 1015.8 |
| 20260831094548 | 68 | 0 | 0.0 | 3.0 | 0.00 | 0.12 | 0.12 | 69 | 1016.0 |
| 20260831093102 | 67 | 284 | 1.0 | 8.0 | 0.00 | 0.12 | 0.12 | 69 | 1016.0 |
| 20260831091601 | 67 | 172 | 1.0 | 9.0 | 0.00 | 0.12 | 0.12 | 70 | 1016.0 |
| 20260831090101 | 67 | 0 | 0.0 | 10.0 | 0.00 | 0.12 | 0.12 | 71 | 1016.0 |
| 20260831084632 | 67 | 294 | 7.0 | 0.0 | 0.00 | 0.12 | 0.12 | 71 | 1015.8 |
| 20260831083054 | 66 | 209 | 1.0 | 13.0 | 0.00 | 0.12 | 0.12 | 72 | 1015.7 |
| 20260831081547 | 65 | 255 | 5.0 | 14.0 | 0.00 | 0.12 | 0.12 | 74 | 1015.7 |
| 20260831080110 | 65 | 360 | 2.0 | 12.0 | 0.00 | 0.12 | 0.12 | 78 | 1015.6 |
| 20260831074601 | 64 | 302 | 5.0 | 10.0 | 0.00 | 0.12 | 0.12 | 78 | 1015.4 |
| 20260831073048 | 64 | 0 | 1.0 | 11.0 | 0.00 | 0.12 | 0.12 | 80 | 1015.3 |
| 20260831071607 | 63 | 0 | 3.0 | 10.0 | 0.00 | 0.12 | 0.12 | 80 | 1015.4 |
| 20260831070055 | 62 | 0 | 0.0 | 7.0 | 0.00 | 0.12 | 0.12 | 81 | 1015.1 |
| 20260831064553 | 62 | 0 | 0.0 | 10.0 | 0.00 | 0.12 | 0.12 | 82 | 1015.0 |
| 20260831063101 | 61 | 0 | 2.0 | 10.0 | 0.00 | 0.12 | 0.12 | 83 | 1014.7 |
| 20260831061558 | 61 | 168 | 0.0 | 8.0 | 0.00 | 0.12 | 0.12 | 84 | 1014.7 |
| 20260831060105 | 60 | 0 | 0.0 | 3.0 | 0.00 | 0.12 | 0.12 | 85 | 1014.6 |
| 20260831054555 | 60 | 0 | 0.0 | 5.0 | 0.00 | 0.12 | 0.12 | 85 | 1014.5 |
| 20260831053107 | 60 | 0 | 0.0 | 4.0 | 0.00 | 0.12 | 0.12 | 86 | 1014.5 |
| 20260831051556 | 59 | 0 | 0.0 | 6.0 | 0.00 | 0.12 | 0.12 | 85 | 1014.5 |
| 20260831050124 | 59 | 0 | 0.0 | 5.0 | 0.00 | 0.12 | 0.12 | 85 | 1014.3 |
| 20260831044552 | 59 | 0 | 1.0 | 8.0 | 0.00 | 0.12 | 0.12 | 85 | 1014.3 |
| 20260831043100 | 59 | 0 | 0.0 | 4.0 | 0.00 | 0.12 | 0.12 | 85 | 1014.2 |
| 20260831041617 | 59 | 134 | 0.0 | 5.0 | 0.00 | 0.12 | 0.12 | 84 | 1014.1 |
| 20260831040050 | 59 | 0 | 1.0 | 7.0 | 0.00 | 0.12 | 0.12 | 84 | 1014.1 |
| 20260831034556 | 60 | 185 | 0.0 | 6.0 | 0.00 | 0.12 | 0.12 | 84 | 1014.0 |
| 20260831033110 | 60 | 0 | 0.0 | 6.0 | 0.02 | 0.12 | 0.12 | 83 | 1014.1 |
| 20260831031554 | 60 | 174 | 0.0 | 3.0 | 0.10 | 0.12 | 0.12 | 83 | 1014.2 |
| 20260831030056 | 60 | 0 | 0.0 | 4.0 | 0.12 | 0.12 | 0.12 | 83 | 1014.3 |
| 20260831024559 | 61 | 0 | 0.0 | 12.0 | 0.11 | 0.11 | 0.11 | 82 | 1014.1 |
| 20260831023053 | 61 | 360 | 8.0 | 21.0 | 0.10 | 0.10 | 0.10 | 81 | 1014.6 |
| 20260831021549 | 62 | 272 | 2.0 | 0.0 | 0.01 | 0.01 | 0.01 | 79 | 1015.0 |
| 20260831014603 | 61 | 0 | 0.0 | 1.0 | 0.00 | 0.00 | 0.00 | 79 | 1011.7 |
| 20260831013059 | 62 | 0 | 0.0 | 0.0 | 0.00 | 0.00 | 0.00 | 79 | 1011.5 |
| 20260831011552 | 62 | 0 | 0.0 | 0.0 | 0.00 | 0.00 | 0.00 | 79 | 1011.7 |
| 20260831010106 | 62 | 0 | 0.0 | 0.0 | 0.00 | 0.00 | 0.00 | 79 | 1011.8 |
| 20260831004555 | 62 | 0 | 0.0 | 2.0 | 0.00 | 0.00 | 0.00 | 78 | 1012.0 |
| 20260831003101 | 62 | 0 | 0.0 | 0.0 | 0.00 | 0.00 | 0.00 | 77 | 1012.2 |
| 20260831001544 | 62 | 0 | 0.0 | 0.0 | 0.00 | 0.00 | 0.00 | 76 | 1012.3 |
| 20260831000055 | 62 | 0 | 0.0 | 0.0 | 0.00 | 0.00 | 0.00 | 75 | 1012.3 |
| 20260830234559 | 63 | 0 | 0.0 | 0.0 | 0.00 | 0.00 | 0.00 | 74 | 1012.3 |
| 20260830233056 | 63 | 0 | 0.0 | 0.0 | 0.00 | 0.00 | 0.00 | 74 | 1012.5 |
| 20260830231602 | 63 | 0 | 0.0 | 0.0 | 0.00 | 0.00 | 0.00 | 74 | 1012.6 |
| 20260830230053 | 64 | 0 | 0.0 | 0.0 | 0.00 | 0.00 | 0.00 | 74 | 1012.9 |
| 20260830224557 | 64 | 0 | 0.0 | 0.0 | 0.00 | 0.00 | 0.00 | 73 | 1012.8 |
| 20260830223055 | 64 | 0 | 0.0 | 0.0 | 0.00 | 0.00 | 0.00 | 73 | 1013.0 |
| 20260830221553 | 64 | 0 | 0.0 | 0.0 | 0.00 | 0.00 | 0.00 | 73 | 1013.1 |
| 20260830220059 | 65 | 0 | 0.0 | 0.0 | 0.00 | 0.00 | 0.00 | 73 | 1013.2 |
| 20260830214550 | 65 | 0 | 0.0 | 0.0 | 0.00 | 0.00 | 0.00 | 72 | 1013.2 |
| 20260830213059 | 65 | 0 | 0.0 | 0.0 | 0.00 | 0.00 | 0.00 | 72 | 1013.2 |
| 20260830211555 | 65 | 0 | 0.0 | 0.0 | 0.00 | 0.00 | 0.00 | 71 | 1013.4 |
| 20260830210105 | 65 | 0 | 0.0 | 0.0 | 0.00 | 0.00 | 0.00 | 71 | 1013.3 |
| 20260830204611 | 65 | 0 | 0.0 | 0.0 | 0.00 | 0.00 | 0.00 | 70 | 1013.3 |
| 20260830203058 | 66 | 0 | 0.0 | 0.0 | 0.00 | 0.00 | 0.00 | 69 | 1013.4 |
| 20260830201557 | 66 | 0 | 0.0 | 0.0 | 0.00 | 0.00 | 0.00 | 69 | 1013.4 |
| 20260830200108 | 66 | 0 | 0.0 | 1.0 | 0.00 | 0.00 | 0.00 | 69 | 1013.5 |
| 20260830194615 | 67 | 0 | 0.0 | 0.0 | 0.00 | 0.00 | 0.00 | 67 | 1013.5 |
| 20260830193058 | 68 | 0 | 0.0 | 0.0 | 0.00 | 0.00 | 0.00 | 66 | 1013.4 |